{"data":{"norad_id":59043,"intl_designator":"2024-038W","name":"STARLINK-31234","alt_names":[],"object_type":"PAYLOAD","status":"ACTIVE","operator":null,"country":"US","launch_date":"2024-02-25","launch_site_code":"AFETR","launch_vehicle":null,"mission":null,"orbit_class":"UNKNOWN","rcs_meters":null,"size_class":null,"mass_kg":null,"dimensions":null,"purposes":["comms"],"wikipedia_slug":null,"has_3d_model":false,"image_url":null,"decayed_at":null,"tle_current":{"epoch":"2026-09-20T07:53:30.726240Z","epoch_age_seconds":171106,"freshness":"FRESH","line1":"1 59043U 24038W   26263.32882785 -.00000557  00000+0 -10744-4 0  9998","line2":"2 59043  43.0034   4.5292 0000819 275.4480  84.6278 15.27575100144453","mean_motion":15.275751,"eccentricity":8.19e-5,"inclination_deg":43.0034,"raan_deg":4.5292,"arg_perigee_deg":275.448,"mean_anomaly_deg":84.6278,"bstar":-1.0744e-5,"rev_number":14445,"period_min":94.267051092938,"perigee_km":482.5018360987,"apogee_km":483.62570078457,"semimajor_km":6861.2007684416,"source":"CELESTRAK","updated_at":"2026-09-21T09:00:34.032507Z"}}}